Погода в Нерете

Латвия     56°12′10″N   25°18′29″E
темп.,
°C
ветер,
м/с
пор.,
м/с
влажн.,
%
обл.,
%
осадки,
мм/ч
давл.,
гПа
погр.,
м
31 июля, сб
сб3100:00+17юз6155948 0.0 10021280
03:00+16юз6146924 0.0 10021018
06:00+16юз5137941 0.0 1002828
09:00+19зюз6107168 0.0 10031011
12:00+20зюз51073100 0.5 10041393
15:00+23зюз595749 0.8 10051636
18:00+22юз3860100 0.0 1005549
21:00+19ю2477100 0.0 100474
1 августа, вс
вс100:00+16ю4119784 2.6 1005467
03:00+16ююз3109826 2.9 1005384
06:00+14ююз289924 0.0 1004222
09:00+18юз5119192 0.2 1004654
12:00+21юз696398 0.1 10051422
15:00+22зюз696392 0.6 10061451
18:00+21юз5766100 0.1 1006978
21:00+17ююз3987100 0.4 1007284
2 августа, пн
пн200:00+15юз239596 0.4 100770
03:00+15ю1194100 0.4 100612
06:00+15ю1293100 0.1 100540
09:00+15юз1398100 0.9 1005117
12:00+16юз2494100 1.1 1004340
15:00+19зюз2588100 3.3 1003517
18:00+18з398591 1.8 1003319
21:00+16з4117565 2.4 1004381
3 августа, вт
вт300:00+13юз3982100 0.0 1006234
03:00+11юз310923 0.0 1006233
06:00+12юз311945 0.0 1006341
09:00+15зюз4582100 0.0 1007603
12:00+18зюз246652 0.1 10081147
15:00+18сз3667100 0.2 1009612
18:00+20сз345144 0.0 10101438
21:00+16ссз266979 0.0 1012178
4 августа, ср
ср400:00+11ссв22805 0.0 101315
03:00+10всв118414 0.0 101410
06:00+10вюв228254 0.0 101417
09:00+16вюв245930 0.0 1015350
12:00+21юв3349100 0.0 10141248
15:00+23ююв2342100 0.0 10132298
18:00+17ююз267879 0.2 1013151
21:00+16ююв118497 0.5 101313